Location: Dumpton Point
(51.3500°N, 1.4433°E)
Time: 06:01:41
(UTC+00:00)

Altair - Pass Details

Date: 02 October 2022
Orbit: 1501 x 1682 km, 47.2° (Epoch: 26 November)

Event Time Altitude Azimuth Distance (km) Brightness Sun altitude
Rises 09:03:30 0° 274° (W) 4,867 9.7 25.3°
Reaches altitude 10° 09:06:38 10° 272° (W) 3,899 9.3 25.7°
Maximum altitude 09:16:31 66° 194° (SSW) 1,806 8.6 26.7°
Drops below altitude 10° 09:26:32 10° 115° (ESE) 3,941 10.9 27.7°
Sets 09:29:43 0° 113° (ESE) 4,921 11.1 28.1°
